Location: Newark
(48.8833°N, 0.9236°W)
Time: 17:14:41
(UTC+00:00)

Tiros 1 despin weight - Pass Details

Date: 22 November 2019
Orbit: 594 x 642 km, 48.2° (Epoch: 10 December)

Event Time Altitude Azimuth Distance (km) Brightness Sun altitude
Rises 16:44:05 0° 282° (WNW) 2,839 ? -4.9°
Reaches altitude 10° 16:46:25 10° 277° (W) 1,940 ? -5.2°
Maximum altitude 16:50:42 48° 203° (SSW) 789 ? -5.9°
Drops below altitude 10° 16:55:01 10° 129° (SE) 1,958 ? -6.5°
Sets 16:57:23 0° 124° (ESE) 2,869 ? -6.9°
